Weather Roundup
Issued by NWS

Home | Current Version | Previous Version | Graphics & Text | Print | Product List | Glossary Off
Versions: 1 2 3 4 5 6 7 8 9 10 11 12 13 14 15 16 17 18 19 20 21 22 23 24 25 26 27 28 29 30 31 32 33 34 35 36 37 38 39 40 41 42 43 44 45 46 47 48 49 50

000
NZUS93 KARX 191959
HRRWXR

CURRENT HOURLY OBSERVATIONS ACROSS
MUCH OF THE UPPER MISSISSIPPI VALLEY
NATIONAL WEATHER SERVICE LA CROSSE WI
300 PM CDT TUE SEP 19 2017


...SOUTHEAST MINNESOTA...


CITY           SKY/WX    TMP DP  RH WIND       PRES   REMARKS
ROCHESTER      SUNNY     77  62  59 SE18G24   29.85F
ROCHESTER/MAYO FAIR      75  59  56 SE17G28   29.85F
WINONA         MOSUNNY   79  61  53 SE13G20   29.86F
AUSTIN         PTSUNNY   77  61  57 SE14G21   29.83F
ALBERT LEA     CLOUDY    81  64  57 SE14G22   29.80F
DODGE CENTER   SUNNY     77  61  57 SE16G24   29.84F
PRESTON        SUNNY     76  61  60 S14G22    29.87F
OWATONNA       SUNNY     81  64  57 SE16G25   29.80F
FARIBAULT      PTSUNNY   79  63  57 SE18G25   29.80F
$$

...ELSEWHERE IN MINNESOTA...


CITY           SKY/WX    TMP DP  RH WIND       PRES   REMARKS
MINNEAPOLIS    PTSUNNY   78  63  59 SE14      29.79F
INTNL FALLS    MOSUNNY   71  58  63 SE10G21   29.80F
DULUTH         MOSUNNY   68  60  75 E13       29.87F
RED WING       MOSUNNY   79  63  57 SE13      29.81F
REDWOOD FALLS  CLOUDY    76  64  66 SE23G31   29.70F
MANKATO        SUNNY     79  65  62 SE20G26   29.75F
WORTHINGTON    CLOUDY    75  67  76 SE21G31   29.69F
FAIRMONT       CLOUDY    77  67  71 SE20G32   29.75F
$$

...SOUTHWEST WISCONSIN...


CITY           SKY/WX    TMP DP  RH WIND       PRES   REMARKS
LA CROSSE      PTSUNNY   80  64  58 SE12      29.87F
PRAIRIE DU CHI MOSUNNY   81  60  48 E10       29.88F
BOSCOBEL       MOSUNNY   81  61  50 S8        29.89F
LONE ROCK      NOT AVBL
PLATTEVILLE    PTSUNNY   81  64  55 SE8       29.92F
FORT MC COY    MOSUNNY   79  60  52 SE8       29.90F
MAUSTON-NEW LI CLEAR     78  57  48 SE12      29.92F
VIROQUA        FAIR      78  63  59 SE9G18    29.92F
WIS DELLS      NOT AVBL
$$

...ELSEWHERE IN WISCONSIN...


CITY           SKY/WX    TMP DP  RH WIND       PRES   REMARKS
MILWAUKEE      PTSUNNY   70  66  87 E8        29.96F FOG
MADISON        MOSUNNY   80  57  45 S8        29.92F
GREEN BAY      MOSUNNY   77  61  57 E12       29.96F
EAU CLAIRE     NOT AVBL
BLACK RVR FLS  FAIR      80  57  45 SE6       29.90F
MEDFORD        SUNNY     73  53  47 SE9G21    29.93F
WAUSAU         SUNNY     76  54  46 SE13      29.93F
WIS RAPIDS     SUNNY     80  52  37 S12       29.94F
MARSHFIELD     SUNNY     77  51  40 SE15      29.92F
RICE LAKE      CLOUDY    75  60  59 SE14      29.89F
$$

...NORTHEAST IOWA...


CITY           SKY/WX    TMP DP  RH WIND       PRES   REMARKS
WATERLOO       SUNNY     78  63  59 SE15G22   29.84F
DUBUQUE        MOSUNNY   76  64  66 SE10      29.92F
DECORAH        MOSUNNY   79  63  57 S12G21    29.87F
MASON CITY     CLOUDY    76  64  66 SE21G28   29.82F
CHARLES CITY   SUNNY     77  64  65 SE15G22   29.85F
OELWEIN        SUNNY     79  64  61 SE13G21   29.88F
$$

...ELSEWHERE IN IOWA...


CITY           SKY/WX    TMP DP  RH WIND       PRES   REMARKS
DES MOINES     MOSUNNY   82  68  62 SE18      29.79F
IOWA CITY      MOSUNNY   81  65  58 SE9       29.89F
FORT DODGE     PTSUNNY   79  69  71 SE9       29.77F
MARSHALLTOWN   SUNNY     79  67  66 SE16      29.83F
CEDAR RAPIDS   MOSUNNY   78  66  66 S10       29.88F
$$

...NORTHERN ILLINOIS...


CITY           SKY/WX    TMP DP  RH WIND       PRES   REMARKS
CHICAGO-OHARE  PTSUNNY   78  63  59 E9        29.93S
CHICAGO-MIDWAY MOSUNNY   76  64  66 E8        29.93S
MOLINE         MOSUNNY   80  64  58 SE8       29.90F
ROCKFORD       MOSUNNY   80  63  55 SE7       29.93F
PEORIA         SUNNY     79  66  64 S5        29.91F
$$

NOTE: "FAIR" INDICATES FEW OR NO CLOUDS BELOW 12,000 FEET WITH NO
SIGNIFICANT WEATHER AND/OR OBSTRUCTIONS TO VISIBILITY. WIND
SPEEDS ARE IN MILES-PER-HOUR.




USA.gov is the U.S. government's official web portal to all federal, state and local government web resources and services.